Location: ?
(34.8792°N, 135.7604°E)
Time: 00:57:45
(UTC+00:00)

Daily predictions for brighter satellites

Satellite Brightness Start Highest point End
(mag) Time Altitude Azimuth Time Altitude Azimuth Time Altitude Azimuth
GP-B 3.5 09:11:32 10° N 09:15:58 71° W 09:20:22 10° S
Cosmos 1437 2.5 09:14:44 10° N 09:17:44 90° SSW 09:20:42 10° S
CZ-2D R/B 3.3 09:14:11 10° SSE 09:17:59 57° ENE 09:21:48 10° N
H-2A R/B 2.8 09:23:23 10° SE 09:27:37 29° ENE 09:31:58 10° N
Cosmos 2151 Rocket 4.1 09:24:48 10° SSE 09:28:52 36° E 09:32:59 10° NNE
Cosmos 1844 Rocket 2.6 09:26:01 10° S 09:31:32 70° ESE 09:37:05 10° NNE
BREEZE-M DEB (TANK) 4.2 09:28:47 10° NNW 09:31:40 25° NE 09:37:13 12° E
CENTAUR R/B 4.1 09:25:03 10° NNW 09:32:01 30° NE 09:38:38 13° E
Milstar 3 Cent rocket 3.5 09:23:31 10° WSW 09:32:32 40° S 09:37:17 13° ESE
ATLAS 2AS CENTAUR R/B 3.4 09:25:55 10° S 09:33:02 39° ESE 09:40:15 10° NE
Meteor 1-12 Rocket 4.3 09:30:37 10° S 09:36:29 73° E 09:42:17 10° NNE
Cosmos 1975 Rocket 3.2 09:33:29 10° N 09:37:47 75° W 09:42:05 10° S
Cosmos 1844 3.7 09:32:11 10° S 09:37:48 63° ESE 09:43:23 10° NNE
Cosmos 1805 4.1 09:49:29 10° SSE 09:52:52 29° E 09:56:16 10° NNE
HJ-1C 3.5 09:50:48 10° SSE 09:53:58 50° ENE 09:57:10 10° N
GOES 2 Rocket 3.9 09:51:11 10° WSW 09:55:06 35° S 09:57:17 21° SE
CSL-04 Debris 4.1 09:52:46 10° SSE 09:58:07 77° ENE 10:03:31 10° N
Exosat Rocket 3.6 09:52:51 10° S 09:58:47 69° ESE 10:03:46 10° NNE
USA 238 DEB 4.1 09:53:08 10° NNW 10:00:17 54° NE 10:05:46 19° SE
USA 238 4.1 09:53:15 10° NNW 10:00:23 53° NE 10:05:49 19° SE
CSL-04 Rocket 3.6 09:55:08 10° SSE 10:00:31 77° ENE 10:06:02 10° N
Cosmos 1464 Rocket 4.4 10:01:54 10° SSW 10:07:57 67° W 10:14:07 10° N
Cosmos 2285 Rocket 3.9 10:03:19 10° SSW 10:09:36 81° ESE 10:15:57 10° NNE
KORONAS-FOTON 4.3 10:07:01 10° N 10:10:40 37° E 10:10:49 37° E
Cosmos 1707 3.7 10:09:08 10° NNW 10:12:49 47° W 10:16:29 10° SSW
Okean 1 Rocket 3.1 10:09:22 10° S 10:13:42 53° E 10:18:05 10° NNE
Cosmos 1092 Rocket 4.3 10:12:09 10° N 10:18:00 43° E 10:20:45 28° SE
CZ-2C R/B 1.6 10:14:56 10° W 10:18:30 43° SSW 10:19:11 38° SSE
Cosmos 1125 Rocket 4.2 10:17:10 10° SSW 10:22:21 56° WNW 10:27:35 10° N
NOSS 3-2 (A) 4.1 10:17:18 10° NNW 10:25:12 83° ENE 10:31:33 21° SSE
H-2A R/B 2.9 10:23:19 10° SW 10:24:40 24° S 10:24:40 24° S
YAOGAN 1 4.4 10:21:38 10° SSW 10:25:29 31° W 10:29:21 10° NW
CZ-2C R/B 3.9 10:20:35 10° S 10:25:41 53° W 10:31:06 10° NNW
Shenzhou-11 Module 4.3 10:25:46 10° WNW 10:26:31 15° NW 10:26:31 15° NW
USA 186 3.5 10:33:30 24° N 10:33:30 24° N 10:34:57 10° N
Cosmos 1025 Rocket 4.1 10:29:26 10° NNW 10:33:37 45° W 10:37:47 10° SSW
Cosmos 1766 3.1 10:33:25 66° SSE 10:33:55 82° E 10:37:52 10° N
TSX-5 4.1 10:30:43 10° SSW 10:34:12 64° WNW 10:38:33 10° NNE
ARGOS 3.3 10:33:50 11° S 10:39:02 74° WSW 10:44:25 10° NNW
ATLAS 5 CENTAUR R/B 4.3 10:34:59 10° NW 10:39:26 48° SW 10:55:16 10° SSE
MOS 1 4.3 10:39:24 49° ESE 10:40:27 57° ENE 10:46:02 10° N
Cosmos 1536 Rocket 4.4 10:37:46 10° NNW 10:42:06 50° W 10:46:14 11° SSW
SWAS 4.3 10:37:49 10° NNW 10:42:06 89° WSW 10:42:13 85° S
USA 234 3.4 10:40:57 43° E 10:42:10 48° SE 10:48:25 10° SSW
Fregat R/B Cluster 11 4.4 10:46:28 65° ENE 10:46:28 65° ENE 10:54:58 10° NNE
OAO 1 4.4 10:42:32 10° WSW 10:47:59 71° SSE 10:48:22 68° SE
SJ-6B 4.4 10:50:22 25° N 10:50:22 25° N 10:52:05 10° N
CZ-2C R/B 2.8 10:43:28 10° N 10:49:03 81° WNW 10:54:41 10° SSW
Cosmos 2082 Rocket 4.3 10:51:04 10° NNE 10:52:02 12° NNE 10:52:02 12° NNE
NOSS 3-4 (A) 4.3 10:55:50 10° SW 11:01:25 45° NW 11:07:18 10° NNE
NOSS 3-4 (C) 4.3 10:55:55 10° SW 11:01:31 46° NW 11:07:25 10° NNE
DMSP B5D2-2 4.3 10:56:39 10° N 11:01:55 70° WNW 11:07:09 10° SSW
NOSS 3-2 (C) 4.1 10:55:18 10° NNW 11:03:14 89° WSW 11:06:10 47° SSE
Cosmos 1674 4.3 11:02:37 10° NNW 11:05:59 33° W 11:05:59 33° W
H-2A R/B 4.0 11:02:52 10° SSW 11:06:58 26° W 11:11:11 10° NW
Ariane Rocket 3.2 11:07:03 63° SW 11:07:25 66° WSW 11:12:29 10° NNW
MetOp-A 4.2 11:13:29 74° WNW 11:13:29 74° WNW 11:18:33 10° NNW
Cosmos 2278 Rocket 3.6 11:12:46 10° SSW 11:23:30 13° NNE 11:24:05 10° NNE
COSMOS 2406 4.1 11:13:53 10° NNW 11:17:33 38° N 11:17:33 38° N
CENTAUR R/B 3.3 11:15:04 10° NW 11:23:29 73° WSW 11:25:52 52° S
ATLAS 2AS CENTAUR R/B 4.0 11:16:26 10° WSW 11:23:55 45° NW 11:31:29 10° NNE
Meteor 2-5 Rocket 4.4 11:22:03 10° NNW 11:27:35 52° W 11:28:11 50° WSW
Meteor 1-24 Rocket 4.3 11:25:51 10° NNW 11:30:32 56° NW 11:30:32 56° NW
ATLAS 3B R/B 3.5 11:28:30 10° NNW 11:33:33 42° NNE 11:33:33 42° NNE
Cosmos 1833 Rocket 4.3 11:40:48 10° NNW 11:43:23 28° N 11:43:23 28° N
